Location: Brachbach
(49.1847°N, 9.7240°E)
Time: 21:07:24
(UTC+00:00)

Cosmos 2219 Rocket - Pass Details

Date: 13 August 2024
Orbit: 826 x 846 km, 71.0° (Epoch: 09 September)

Event Time Altitude Azimuth Distance (km) Brightness Sun altitude
Exits shadow 01:02:38 41° 250° (WSW) 1,203 2.6 -22.8°
Maximum altitude 01:04:18 57° 304° (WNW) 994 2.5 -22.6°
Drops below altitude 10° 01:09:55 10° 23° (NNE) 2,481 5.8 -22.2°
Sets 01:12:26 0° 27° (NNE) 3,420 6.9 -22.0°
